Theta_e
294 291 290 290 292 294 296 297 296 296 297 297 297 300 300 300 301 302 302 302 304 299 299 302 302 301 300 301 302 299 301 300 300 303 303 302 301 300 303 302 303 306 306 306 303 303 307 300 299 300 300 300 304 305
294 294 291 290 290 292 293 295 297 298 297 296 296 296 299 299 300 300 300 303 303 302 298 300 301 302 302 303 300 299 299 299 300 301 299 300 301 299 300 300 299 302 303 302 303 303 299 299 299 300 300 301 304 304
295 294 293 291 290 291 293 293 293 293 294 296 296 295 294 298 299 300 301 301 301 298 298 299 298 300 302 302 304 300 298 297 297 298 298 298 299 298 300 299 298 298 298 299 299 297 298 299 300 301 301 300 302 303
296 294 295 292 291 291 293 295 295 295 293 292 293 294 295 297 298 300 300 299 299 297 296 296 297 298 298 299 300 301 300 298 298 298 296 295 297 296 296 298 297 297 297 298 297 297 298 298 299 300 300 300 300 302
296 295 294 294 291 291 292 294 295 295 293 293 293 293 294 294 296 298 298 297 297 298 295 296 296 296 298 299 299 299 298 298 298 296 294 295 294 295 292 294 294 295 296 296 296 297 297 297 298 298 299 299 299 298
296 295 294 294 292 291 292 292 294 294 293 294 293 293 293 294 294 295 295 296 296 296 296 294 296 295 296 297 298 298 298 298 297 296 292 295 296 295 293 294 294 296 297 297 295 296 296 296 296 297 296 295 296 296
296 296 295 294 294 290 291 291 292 292 294 294 294 294 293 293 294 294 292 292 293 294 295 291 293 296 296 295 295 295 295 295 295 294 292 294 295 295 291 295 295 296 296 296 295 295 295 295 295 295 295 295 295 296
295 296 296 294 294 291 290 290 291 293 294 294 294 293 293 293 293 293 292 292 293 294 296 292 295 294 296 295 295 296 296 296 294 293 294 291 294 292 289 293 293 294 294 295 295 296 295 295 295 294 295 295 295 296
295 296 295 295 294 293 290 290 291 292 294 294 294 294 294 293 293 291 290 291 293 293 292 293 293 290 296 293 295 296 295 288 292 293 293 292 290 293 294 294 295 295 295 295 296 296 296 295 295 295 295 295 295 295
295 294 294 295 295 294 293 293 294 293 295 295 294 294 293 293 291 292 292 291 291 292 293 291 293 295 294 293 292 293 292 291 290 292 293 291 293 295 295 296 296 297 298 299 297 297 297 296 296 296 295 295 295 296
293 293 293 294 295 295 294 295 295 295 295 294 294 293 292 292 293 294 292 292 292 291 292 292 293 293 295 291 292 292 292 291 294 291 292 293 295 295 299 299 299 299 298 297 297 298 298 296 296 296 296 297 297 297
293 294 294 295 295 295 295 295 295 294 294 293 293 293 293 293 292 291 293 292 293 293 292 292 294 296 296 296 294 295 296 295 296 292 294 294 293 298 298 297 297 296 296 296 296 297 298 297 296 296 296 297 297 297
295 295 295 295 295 295 295 294 294 294 293 294 293 292 292 292 288 291 290 293 291 292 293 294 290 296 296 296 294 294 295 292 295 295 294 294 298 297 295 294 293 293 294 295 295 297 297 297 297 297 297 299 300 300
293 294 294 295 295 295 295 294 294 293 292 293 291 285 287 287 290 290 291 287 293 295 296 295 294 292 296 292 292 291 293 296 292 293 296 297 297 295 294 293 292 291 291 292 294 295 295 297 298 300 300 301 301 301
292 292 292 293 294 294 294 294 292 292 293 292 292 289 290 291 291 292 292 294 296 296 297 295 293 295 293 294 293 293 293 291 294 294 294 297 297 296 295 293 292 292 291 290 291 293 294 295 296 296 298 300 300 300
288 289 290 289 290 291 291 292 291 291 292 293 292 289 291 287 286 292 293 296 296 296 296 296 293 292 294 297 296 294 295 294 296 295 297 298 296 295 294 294 293 292 291 290 291 292 293 293 295 296 296 297 297 297
290 289 288 288 288 288 288 289 290 292 292 293 289 292 294 293 292 293 294 296 296 296 289 293 294 296 296 297 298 296 293 294 296 297 297 296 295 294 293 293 293 292 291 291 290 291 292 293 294 294 294 295 295 295
290 289 289 289 289 289 289 289 291 292 293 294 290 293 293 293 293 294 295 296 297 296 296 295 296 296 294 299 299 296 297 297 296 297 296 294 293 293 293 292 292 291 290 290 290 291 292 292 292 292 292 292 292 292
290 289 289 288 290 291 291 291 292 292 292 293 294 294 294 294 295 294 295 296 297 297 297 295 295 295 294 296 293 296 297 296 296 296 295 294 293 293 293 293 292 292 291 290 290 290 291 291 291 291 290 290 290 290
291 290 289 288 290 291 291 292 292 292 292 293 294 295 294 295 295 295 295 296 296 296 296 295 293 295 296 297 297 297 296 296 297 297 296 295 295 295 294 292 292 292 291 291 290 290 290 291 290 290 290 289 289 288
291 291 290 290 290 289 290 290 291 292 292 293 294 295 295 295 295 296 295 295 296 295 292 296 296 296 297 296 297 297 297 298 298 298 298 296 295 294 293 292 292 291 292 291 291 291 290 290 290 290 290 289 289 289
290 290 290 290 290 290 290 291 292 293 292 293 294 295 295 293 295 295 296 295 295 295 295 295 296 296 297 296 296 297 297 298 297 297 296 296 296 294 294 293 293 292 291 291 291 291 291 291 291 291 290 290 289 288
290 290 290 290 290 290 290 292 292 293 292 292 294 294 292 292 295 295 294 295 296 296 296 296 295 296 296 296 297 297 297 296 296 295 294 294 294 294 294 293 293 293 292 291 291 291 291 290 291 291 290 290 289 288
290 291 291 290 290 286 291 291 292 293 294 293 293 292 292 291 294 294 292 295 296 296 296 296 296 296 296 297 297 295 295 296 295 294 293 293 293 293 293 294 293 292 291 291 290 290 290 290 290 290 290 289 289 288
290 290 290 283 290 289 289 288 288 292 287 290 292 288 286 293 288 287 291 292 294 295 296 296 296 297 297 296 295 295 295 295 294 294 294 294 293 293 293 293 291 291 291 291 291 290 290 290 290 290 290 290 289 288
289 285 286 284 283 288 288 285 284 286 287 287 288 290 291 285 286 288 289 291 292 292 294 296 296 296 296 296 295 295 295 295 294 293 292 291 292 292 291 291 291 290 289 290 290 290 290 290 290 290 290 290 290 289
281 281 283 282 282 284 286 288 291 289 286 285 285 284 285 287 283 286 291 292 291 291 293 294 294 294 295 294 295 294 294 293 292 292 291 291 290 290 289 289 288 288 288 289 289 289 288 289 290 289 289 289 289 289
282 280 277 279 281 283 284 286 287 288 287 287 289 286 288 286 284 287 287 289 289 290 292 293 294 293 293 293 293 293 292 291 290 290 289 289 288 288 288 288 288 288 287 287 286 288 288 288 288 288 288 288 288 289
280 278 278 273 281 283 284 284 284 284 282 283 282 285 287 286 285 286 287 288 288 289 291 292 292 292 292 292 291 289 288 287 288 288 288 289 288 287 287 286 285 285 285 285 285 286 286 287 287 287 287 287 287 287
277 276 277 277 274 279 283 282 281 281 281 281 283 284 285 284 284 284 284 286 287 287 288 289 288 287 288 287 287 287 286 286 287 287 288 287 286 285 285 285 285 285 285 284 284 285 285 286 287 287 287 287 287 287
276 277 278 278 276 280 280 279 280 281 281 281 282 283 284 283 282 283 284 285 285 286 286 287 287 287 287 286 286 286 286 285 284 284 283 283 283 282 283 283 283 284 284 284 284 285 285 286 286 287 287 288 288 288
277 278 276 271 274 278 279 280 279 280 281 282 284 285 283 282 280 281 281 282 283 285 285 285 286 285 285 285 285 285 284 283 282 281 281 282 281 283 283 283 283 283 284 284 284 284 284 285 285 285 286 286 287 287
275 276 276 276 275 277 279 279 279 279 281 282 284 284 281 280 278 278 278 280 281 282 282 283 283 283 283 283 283 283 282 282 281 281 282 282 282 282 283 282 282 283 283 284 284 284 284 284 284 284 284 285 285 286
Wind_Speed
20 22 21 22 22 22 22 24 27 27 27 27 25 25 27 25 22 22 25 24 28 8 8 12 14 11 14 10 7 13 7 1 1 2 3 3 3 5 4 6 7 7 7 3 3 3 7 12 3 8 5 1 19 21
15 18 19 20 20 21 21 19 18 17 19 23 24 24 19 14 16 15 19 17 26 17 17 17 17 20 12 12 20 8 3 6 7 3 1 3 2 1 4 3 2 4 5 7 8 6 2 13 4 11 6 7 18 24
11 13 16 18 18 19 22 23 24 22 18 17 18 20 19 14 16 14 24 29 35 30 23 19 16 12 10 8 17 9 5 7 7 6 3 2 3 1 3 3 3 2 3 3 3 2 3 7 7 4 6 7 12 15
6 9 11 15 16 16 18 21 23 24 24 22 19 20 21 22 26 28 28 17 19 13 5 12 20 16 13 14 10 12 20 13 15 10 4 2 3 1 2 1 2 1 3 4 2 1 1 5 6 6 4 6 8 9
5 7 8 11 14 14 15 17 19 20 22 22 22 21 23 23 20 25 26 22 12 10 5 8 23 21 13 10 15 17 19 21 9 4 3 1 3 3 1 2 1 4 5 3 4 7 3 2 1 5 8 9 12 11
7 6 7 9 11 11 14 15 16 17 18 19 18 19 20 21 22 18 15 25 30 33 11 3 9 15 16 21 23 21 18 14 7 5 2 2 1 2 2 2 3 8 11 10 4 8 16 17 12 11 17 19 22 26
8 9 8 9 9 10 11 13 15 16 18 21 19 15 12 10 9 13 9 8 12 12 8 3 2 3 10 12 14 15 11 9 6 4 3 2 2 2 2 2 6 9 11 15 19 18 18 21 18 18 20 21 21 22
5 8 9 10 10 9 10 11 13 15 16 17 18 22 22 23 25 23 20 14 11 11 8 3 2 3 4 4 4 5 5 5 7 3 3 2 2 3 2 8 8 11 14 14 13 14 20 21 24 23 21 21 20 19
6 7 8 10 10 9 8 10 11 12 12 12 13 14 12 14 10 12 14 15 15 9 5 3 3 3 3 5 4 4 3 3 2 2 1 3 1 4 4 4 10 10 10 16 18 18 16 15 15 17 18 21 23 24
8 5 1 14 12 10 8 9 10 10 8 9 8 6 7 6 9 7 3 3 6 7 6 3 3 3 4 3 3 3 5 2 1 2 4 2 3 14 17 18 16 12 11 11 13 16 14 16 15 13 14 15 16 17
3 2 3 6 13 12 9 8 7 7 6 5 6 6 8 8 8 7 6 6 6 4 5 4 4 4 4 3 3 3 3 1 2 3 3 2 3 3 2 4 5 8 11 12 13 18 19 18 15 13 11 10 17 20
4 8 6 10 14 16 12 10 8 5 4 4 9 10 5 5 6 5 3 2 3 1 1 3 3 4 4 3 3 3 2 2 2 7 2 2 3 3 3 6 8 9 9 10 11 9 5 10 11 13 16 20 20 14
14 9 6 13 16 17 13 10 11 7 10 5 4 4 3 4 7 3 1 1 1 3 6 5 1 3 4 2 4 2 2 4 6 1 3 3 4 3 0 0 2 5 7 8 10 7 2 6 10 12 12 12 13 10
16 20 21 22 19 16 15 10 10 9 3 4 3 5 3 2 1 2 1 3 1 4 14 15 4 3 3 2 2 3 1 2 2 1 4 2 6 7 3 3 3 6 7 9 10 9 7 4 3 3 3 2 5 4
17 17 18 16 18 18 17 16 12 5 3 4 2 2 1 1 2 2 2 1 5 11 10 6 4 3 1 2 1 2 2 2 4 3 2 5 7 5 2 3 5 7 10 10 9 7 7 7 5 2 2 3 4 4
10 10 11 8 10 12 11 10 6 5 4 2 2 3 1 3 2 2 4 3 6 8 6 3 2 3 1 3 3 4 3 4 3 2 1 7 5 2 1 3 6 6 7 8 8 5 3 3 4 3 4 4 3 2
5 6 7 6 5 5 3 4 2 4 3 1 2 1 1 1 3 3 2 1 3 3 1 2 3 3 2 2 4 3 3 2 1 3 5 3 3 3 3 1 4 6 7 5 5 4 2 2 2 1 0 2 3 4
7 6 6 5 4 5 4 4 3 3 3 1 1 1 2 2 1 2 3 3 4 3 4 2 3 2 2 1 2 2 3 3 3 3 2 2 5 5 3 2 3 6 7 6 4 4 2 3 3 3 2 0 2 3
4 3 3 4 5 4 2 3 3 3 1 1 2 3 2 1 3 3 4 5 3 2 1 3 2 2 2 3 3 4 4 5 4 7 5 6 5 5 3 1 1 2 3 4 4 3 2 3 4 5 6 4 3 4
2 1 3 1 3 4 2 2 2 2 2 2 3 2 1 1 1 5 8 4 3 0 2 2 3 3 4 2 2 2 4 4 5 6 5 3 2 5 2 0 3 2 1 1 2 1 1 0 1 2 4 5 4 1
4 3 6 9 6 3 1 2 2 2 4 3 3 2 2 4 4 6 7 7 3 3 2 6 6 6 6 4 3 3 3 3 4 4 2 5 7 5 3 3 3 2 4 3 3 4 3 3 3 3 3 2 2 1
5 5 4 3 2 2 2 2 2 2 2 4 4 3 3 2 4 5 7 5 4 6 6 3 4 9 9 5 1 4 4 5 3 3 3 4 8 7 6 3 2 2 2 2 4 5 5 5 5 5 3 4 5 3
3 2 2 3 2 2 2 2 2 3 2 2 1 1 2 2 2 9 2 5 6 8 9 8 6 5 6 7 5 5 6 5 7 6 5 4 3 4 3 3 1 2 1 0 3 6 7 6 7 7 6 7 6 7
7 4 2 2 3 4 2 2 3 3 2 2 2 2 1 3 8 2 2 3 5 4 5 7 9 9 8 10 10 8 7 7 9 7 6 5 4 5 5 5 2 3 2 3 3 5 5 6 8 6 6 7 8 8
3 3 2 3 3 0 2 3 2 1 3 3 1 3 2 4 2 1 2 3 2 3 5 6 9 11 13 13 11 12 10 8 7 7 6 5 4 3 4 4 2 3 7 8 6 7 6 6 7 8 9 9 8 8
2 5 5 3 4 1 3 2 2 4 2 2 4 1 1 2 2 4 2 5 4 6 4 7 12 13 12 11 11 12 10 9 8 7 4 3 2 3 2 2 2 2 4 4 6 8 9 7 9 9 9 11 12 11
3 4 4 5 5 5 5 5 4 1 2 3 2 1 2 2 4 3 1 4 7 11 10 9 13 13 11 11 12 12 10 8 8 7 6 4 2 1 2 2 3 4 6 5 4 5 6 7 7 8 8 10 10 12
4 5 3 13 5 3 3 3 2 1 1 6 3 3 5 6 4 1 2 7 9 9 7 6 10 14 12 12 13 13 10 9 8 7 5 4 3 2 3 3 5 6 8 10 7 7 8 8 9 11 12 12 12 12
2 8 10 3 4 4 1 2 3 4 7 6 2 2 2 2 3 5 6 7 7 8 8 7 11 13 16 16 13 10 8 6 9 11 11 8 7 6 8 7 6 6 7 9 9 9 9 10 11 11 12 14 16 16
3 10 4 3 1 3 2 5 11 17 18 14 8 7 5 6 6 6 6 7 8 9 11 13 15 15 15 16 15 12 9 7 7 9 12 10 7 6 6 7 8 9 8 9 7 7 7 9 9 10 10 11 12 12
5 3 3 4 4 7 16 20 19 18 19 19 18 19 15 9 7 5 5 6 7 9 11 12 12 11 11 12 11 11 10 6 5 6 4 4 4 5 4 3 3 2 4 5 7 7 6 8 8 8 8 9 8 8
4 5 4 2 5 14 19 6 11 6 6 8 9 11 12 9 7 7 4 7 9 12 12 12 13 14 14 10 8 6 6 6 6 4 2 2 2 1 1 2 3 4 4 5 6 6 7 8 8 8 7 6 6 6
5 9 8 4 4 4 3 9 5 5 6 5 4 4 6 11 5 8 6 7 8 11 13 14 14 13 11 9 7 7 7 6 5 4 2 2 1 1 2 2 4 4 3 3 3 3 4 6 7 8 9 10 10 10
Wind_Direction
38 44 49 58 66 73 78 79 82 88 92 90 86 82 89 97 106 128 143 147 167 114 100 127 142 143 131 139 150 155 112 124 115 116 129 167 164 200 147 170 171 158 152 166 134 148 248 171 122 172 207 123 178 187
43 47 52 58 65 70 71 74 76 77 80 89 101 103 109 105 124 136 124 134 136 111 101 111 109 137 119 135 126 151 84 139 164 105 181 114 131 152 147 191 148 184 181 170 186 201 222 174 154 222 234 190 196 202
45 52 53 60 67 74 73 74 76 76 81 87 93 93 92 117 141 141 115 116 110 99 81 92 87 120 146 146 165 123 181 147 146 121 133 106 117 128 164 225 128 214 167 121 128 168 188 193 214 211 237 228 215 213
69 62 63 61 69 74 79 76 72 72 76 84 92 96 96 103 123 135 124 104 110 101 89 47 94 91 112 139 151 183 158 139 126 116 91 114 119 207 195 193 167 200 118 113 16 271 299 224 191 187 221 263 260 231
113 85 83 72 69 78 84 83 77 71 70 82 90 95 100 102 113 113 115 106 101 109 126 112 72 66 101 133 128 135 137 127 88 71 67 117 133 124 67 59 248 199 150 135 221 199 188 218 115 224 214 198 189 187
148 122 102 98 82 85 93 95 88 76 68 72 88 102 107 111 108 115 73 87 99 111 103 68 64 74 89 106 117 123 124 106 88 88 93 81 80 88 106 191 278 188 201 216 224 266 271 271 244 244 279 269 263 267
158 142 124 120 109 103 101 98 93 86 79 73 79 86 88 89 115 83 78 50 88 88 91 74 46 83 76 90 82 72 75 69 76 93 70 105 77 79 113 211 213 227 258 269 281 282 276 273 265 266 265 261 265 266
162 148 140 137 132 123 121 109 102 97 93 88 84 84 84 89 92 78 72 71 81 81 76 93 79 74 50 61 69 55 68 61 41 77 70 82 66 34 266 238 263 271 275 275 274 274 274 283 276 270 266 268 259 261
158 164 166 152 145 143 131 114 103 97 93 85 86 90 88 67 54 51 69 65 63 74 102 78 122 191 113 74 69 75 76 62 46 107 121 121 190 233 243 276 278 292 289 286 291 282 277 276 282 272 261 261 265 270
129 125 170 163 155 150 147 130 113 104 83 90 72 41 46 41 41 43 54 56 43 44 55 79 82 95 101 74 58 71 20 112 104 238 126 120 259 262 277 279 281 288 290 297 288 284 276 261 266 266 261 269 272 277
122 158 152 161 151 160 162 149 128 112 97 46 36 55 74 43 31 36 40 41 359 33 30 69 91 115 123 104 129 206 156 186 155 228 141 217 251 222 350 341 322 308 313 314 295 291 269 260 267 279 272 264 289 294
90 114 122 147 157 163 163 146 132 100 65 64 106 87 50 35 43 68 36 12 34 118 118 114 115 100 117 137 109 167 136 162 193 155 143 256 252 136 320 312 322 329 336 342 342 340 233 240 253 266 271 277 290 299
99 103 80 157 150 157 158 146 122 107 113 60 56 67 38 13 44 83 85 334 103 180 160 150 108 134 134 118 90 146 135 198 132 148 227 227 139 150 236 175 16 15 14 12 14 18 316 251 250 256 259 261 271 264
81 92 108 120 138 156 156 152 154 152 42 52 52 33 88 5 12 191 174 195 119 156 149 144 122 147 139 67 161 95 222 131 34 192 231 176 174 162 137 107 68 26 29 32 27 21 10 358 312 294 274 220 213 252
78 77 78 94 124 140 146 151 137 123 50 58 36 98 96 98 51 350 315 99 94 135 142 116 77 105 66 99 35 101 61 254 205 231 229 148 151 123 55 31 26 28 26 27 30 27 26 29 18 359 94 126 107 115
85 97 72 74 86 88 103 158 113 26 78 63 63 78 81 58 348 6 7 74 120 132 117 90 103 64 135 132 147 210 179 217 213 216 312 144 117 44 332 330 344 6 23 24 20 30 22 40 50 71 102 119 148 187
49 93 99 75 82 102 131 125 175 36 71 80 27 95 103 143 155 169 214 276 171 150 141 117 122 175 145 200 195 186 209 215 266 131 124 132 147 165 170 29 7 7 11 27 40 36 37 48 350 1 212 222 243 245
95 93 87 85 92 91 82 37 58 40 33 60 75 26 203 191 186 217 187 175 158 146 148 174 136 179 221 169 129 209 211 187 174 159 117 132 128 131 137 98 40 23 17 22 58 67 84 63 59 48 37 22 235 237
93 89 76 88 66 38 31 30 35 17 317 319 303 263 247 265 249 229 189 200 185 175 139 154 144 206 217 218 222 182 172 165 162 158 126 96 131 141 153 160 340 8 26 53 69 87 108 79 67 40 21 352 275 261
147 76 22 20 344 6 55 37 345 314 291 324 296 281 240 261 202 206 195 202 216 163 241 210 213 222 188 184 221 177 148 174 148 166 179 174 84 44 142 205 258 241 260 94 45 42 256 295 340 335 342 355 19 211
220 240 304 301 286 302 319 342 316 288 309 303 306 305 239 212 199 183 184 184 186 232 241 235 231 174 159 132 115 153 147 171 201 212 234 203 186 128 111 71 58 244 236 224 273 246 266 274 287 297 305 303 315 291
301 282 286 286 310 292 281 235 241 290 274 273 287 226 225 201 195 192 169 180 229 229 223 245 227 197 191 197 200 189 198 193 203 188 161 169 178 185 199 208 187 118 24 262 266 277 284 281 282 276 278 275 236 270
270 293 275 219 274 269 279 238 257 214 226 258 246 253 245 220 188 155 181 220 245 245 243 240 228 236 232 222 221 192 203 212 184 159 141 135 134 155 168 180 196 255 195 44 271 270 266 275 276 273 267 260 252 261
304 291 237 223 217 263 282 247 236 255 260 252 211 277 231 165 160 215 240 227 230 241 235 224 223 219 205 192 195 201 197 183 184 184 179 187 205 220 225 232 235 280 284 316 314 325 328 297 282 281 277 279 270 271
272 236 223 296 222 284 315 308 287 220 241 222 172 298 266 169 128 190 230 271 243 239 238 224 202 206 199 195 190 187 184 191 197 201 205 224 244 220 212 206 231 240 266 272 262 272 275 294 296 285 270 274 270 272
267 13 13 10 317 280 225 247 229 223 213 257 229 283 165 97 108 245 232 340 344 333 285 227 211 205 206 213 203 199 200 204 206 205 203 212 223 242 252 215 238 266 292 301 294 288 300 308 279 301 291 265 265 268
40 347 350 3 312 295 287 271 254 197 227 217 268 14 90 159 238 248 332 287 318 309 312 245 226 233 253 226 202 196 195 199 210 220 220 204 245 274 305 313 300 294 314 319 309 305 313 295 296 273 291 294 289 274
2 33 354 324 313 274 271 287 302 269 315 348 291 208 180 195 230 252 268 297 312 314 312 260 230 228 236 208 192 196 203 217 224 216 198 185 192 222 247 259 274 276 279 297 300 292 280 280 282 287 290 285 282 283
1 346 341 308 285 271 309 348 332 10 0 336 317 300 310 259 263 258 268 288 298 281 269 244 220 208 196 191 193 201 208 207 200 190 194 202 221 256 274 285 284 297 310 316 308 295 293 290 282 277 281 284 289 282
305 338 307 283 225 269 181 345 316 310 304 288 270 280 263 258 276 272 267 273 265 246 232 215 195 191 190 186 178 171 167 168 187 212 224 224 228 251 284 293 283 280 298 312 313 312 293 294 289 278 283 290 306 298
278 258 257 241 256 274 297 308 307 303 292 275 262 244 247 224 218 228 217 210 205 199 200 191 188 198 196 184 180 166 151 160 175 185 187 214 259 266 270 301 335 326 296 303 291 291 305 319 316 311 304 302 305 311
242 229 198 282 282 297 310 338 314 270 270 255 243 216 183 185 192 197 188 173 178 191 189 180 172 162 170 176 183 178 178 182 174 178 193 223 248 322 3 360 357 345 323 316 316 333 327 321 309 317 325 320 319 314
256 259 254 255 281 287 324 326 282 287 260 262 255 214 166 175 170 191 183 185 181 165 162 165 162 161 165 174 172 172 183 196 197 192 194 265 277 3 27 39 36 21 15 21 6 339 334 336 328 330 321 303 297 296